Date_and_time,latitude,longitude,wind_speed,RelWindDirFrom,WindDirFrom,air_pressure,air_temperature,relative_humidity,Temp,platform_speed_wrt_ground,air_pressure_at_mean_sea_level,platform_orientation
2018-05-14 00:00,50.6304316666667,-96.9807633333333,13.1,15.7,30,981.14,9.6,57,9.91,0.0,1007.16,240.8
2018-05-14 00:10,50.6304316666667,-96.980765,10.8,14.7,18,981.34,9.0,60,9.55,0.0,1007.37,240.8
2018-05-14 00:20,50.6304383333333,-96.98078,14.6,18.1,16,981.38,9.6,57,9.27,0.0,1007.38,240.8
2018-05-14 00:30,50.6304383333333,-96.980785,14.8,18.2,13,981.49,9.7,58,9.44,0.0,1007.50,240.8
2018-05-14 00:40,50.6304366666667,-96.9807766666667,14.6,17.5,12,981.59,9.9,57,9.41,0.0,1007.58,240.8
2018-05-14 00:50,50.630435,-96.9807766666667,15.7,17.2,13,981.67,9.8,58,9.25,0.0,1007.65,240.8
2018-05-14 01:00,50.630425,-96.9807766666667,15.3,17.3,13,981.85,10.0,56,8.91,0.0,1007.83,270.0
2018-05-14 01:10,50.6304233333333,-96.9807666666667,15.7,19.5,17,981.98,10.2,57,8.50,0.0,1008.09,270.0
2018-05-14 01:20,50.63043,-96.98077,17.3,18.8,17,982.07,10.8,55,8.32,0.0,1008.53,270.0
2018-05-14 01:30,50.6304316666667,-96.9807683333333,15.9,17.5,15,982.27,10.1,57,8.32,0.0,1008.87,270.0
2018-05-14 01:40,50.630435,-96.9807633333333,14.4,17.4,13,982.50,10.1,56,8.29,0.0,1009.19,270.0
2018-05-14 01:50,50.6304333333333,-96.9807766666667,11.3,14.9,9,982.74,10.1,56,8.32,0.0,1009.48,270.0
2018-05-14 02:00,50.6304266666667,-96.9807616666667,9.3,11.2,6,982.88,9.7,57,8.35,0.0,1009.67,0.0
2018-05-14 02:10,50.6304683333333,-96.980785,10.2,12.9,4,982.95,10.3,53,8.35,0.0,1009.69,0.0
2018-05-14 02:20,50.6304433333333,-96.9807633333333,13.3,15.4,9,982.97,11.7,48,8.20,0.0,1009.64,0.0
2018-05-14 02:30,50.630435,-96.9807583333333,11.2,15.3,21,983.18,10.4,57,8.11,0.0,1009.91,0.0
2018-05-14 02:40,50.6304366666667,-96.980765,13.5,15.9,4,983.27,11.6,49,8.17,0.0,1009.94,0.0
2018-05-14 02:50,50.63043,-96.9807516666667,12.8,15.0,0,983.39,11.9,49,8.21,0.0,1010.05,0.0
2018-05-14 03:00,50.630425,-96.9807733333333,11.4,13.7,359,983.59,11.5,51,8.22,0.0,1010.27,228.3
2018-05-14 03:10,50.63043,-96.9807683333333,10.0,11.8,358,983.72,11.7,50,8.24,0.0,1010.36,228.3
2018-05-14 03:20,50.6304266666667,-96.9807716666667,9.5,11.9,356,983.80,12.3,47,8.24,0.0,1010.44,228.3
2018-05-14 03:30,50.630425,-96.9807683333333,9.4,12.1,355,983.96,12.5,46,8.19,0.0,1010.59,228.3
2018-05-14 03:40,50.6304283333333,-96.9807666666667,9.9,13.1,354,984.04,13.3,42,8.27,0.0,1010.65,228.3
2018-05-14 03:50,50.6304283333333,-96.980765,10.4,12.9,355,984.09,13.8,41,8.44,0.0,1010.69,228.3
2018-05-14 04:00,50.63043,-96.980765,10.1,13.0,355,984.14,14.0,40,8.51,0.0,1010.70,90.0
2018-05-14 04:10,50.6304333333333,-96.9807633333333,8.9,11.6,354,984.23,14.0,39,8.50,0.0,1010.73,90.0
2018-05-14 04:20,50.630435,-96.9807633333333,7.7,10.1,350,984.30,14.1,38,8.48,0.0,1010.86,90.0
2018-05-14 04:30,50.630435,-96.9807633333333,7.5,9.5,348,984.30,14.2,38,8.49,0.0,1010.80,90.0
2018-05-14 04:40,50.6304316666667,-96.980755,7.1,8.8,347,984.29,13.9,38,8.51,0.0,1010.79,90.0
2018-05-14 04:50,50.6304766666667,-96.98076,6.9,9.5,347,984.34,13.8,38,8.52,0.0,1010.86,90.0
2018-05-14 05:00,50.630445,-96.9807633333333,7.0,10.3,345,984.44,13.8,38,8.53,0.0,1010.96,336.5
2018-05-14 05:10,50.6304433333333,-96.98076,7.1,10.5,346,984.44,13.7,38,8.51,0.0,1010.93,336.5
2018-05-14 05:20,50.63044,-96.98076,6.4,8.3,346,984.46,13.6,38,8.59,0.0,1010.95,336.5
2018-05-14 05:30,50.6304366666667,-96.9807583333333,6.5,8.1,348,984.45,13.4,39,8.63,0.0,1010.91,336.5
2018-05-14 05:40,50.630435,-96.9807566666667,5.8,7.5,349,984.48,13.1,40,8.65,0.0,1010.93,336.5
2018-05-14 05:50,50.6304316666667,-96.9807583333333,5.4,7.1,342,984.50,13.2,38,8.70,0.0,1010.93,336.5
2018-05-14 06:00,50.6304316666667,-96.9807583333333,5.8,7.2,337,984.51,13.1,38,8.75,0.0,1010.95,60.8
2018-05-14 06:10,50.63043,-96.9807583333333,6.1,7.7,334,984.48,13.1,38,8.80,0.0,1010.92,60.8
2018-05-14 06:20,50.6304283333333,-96.98076,5.5,7.3,331,984.49,13.0,38,8.87,0.0,1010.92,60.8
2018-05-14 06:30,50.6304283333333,-96.98076,4.4,6.0,322,984.41,12.8,38,8.92,0.0,1010.87,60.8
2018-05-14 06:40,50.6304283333333,-96.98076,4.2,5.8,326,984.36,12.7,39,8.94,0.0,1010.83,60.8
2018-05-14 06:50,50.6304266666667,-96.98076,3.7,5.2,318,984.33,12.6,39,8.96,0.0,1010.80,60.8
2018-05-14 07:00,50.6304266666667,-96.98076,4.3,5.7,322,984.29,12.5,39,8.94,0.0,1010.77,90.0
2018-05-14 07:10,50.630425,-96.9807583333333,5.0,6.5,319,984.30,12.3,39,8.93,0.0,1010.79,90.0
2018-05-14 07:20,50.6304283333333,-96.9807566666667,4.6,6.7,310,984.27,12.2,40,8.89,0.0,1010.78,90.0
2018-05-14 07:30,50.6304266666667,-96.9807566666667,4.0,5.2,296,984.22,11.6,41,8.71,0.0,1010.76,90.0
2018-05-14 07:40,50.6304166666667,-96.980755,3.7,5.4,308,984.21,11.7,41,8.53,0.0,1010.74,90.0
2018-05-14 07:50,50.6304216666667,-96.9807616666667,3.4,4.7,309,984.16,11.7,41,8.41,0.0,1010.70,90.0
2018-05-14 08:00,50.6304233333333,-96.9807616666667,3.7,6.5,311,984.08,11.9,40,8.33,0.0,1010.61,140.5
2018-05-14 08:10,50.6304266666667,-96.9807616666667,3.8,5.5,302,984.09,12.3,39,8.51,0.0,1010.60,140.5
2018-05-14 08:20,50.6304283333333,-96.9807633333333,2.7,4.2,278,984.16,10.9,44,8.43,0.0,1010.75,140.5
2018-05-14 08:30,50.6304266666667,-96.9807616666667,3.5,4.7,261,984.24,9.9,46,8.30,0.0,1010.88,140.5
2018-05-14 08:40,50.6304266666667,-96.98076,3.0,4.9,262,984.36,9.8,47,8.23,0.0,1011.02,140.5
2018-05-14 08:50,50.6304266666667,-96.98076,4.4,5.7,259,984.45,9.2,48,8.18,0.0,1011.14,140.5
2018-05-14 09:00,50.6304283333333,-96.9807583333333,5.7,7.1,273,984.48,9.3,47,8.11,0.0,1011.18,360.0
2018-05-14 09:10,50.63043,-96.9807583333333,6.5,8.1,276,984.50,9.4,47,8.10,0.0,1011.20,360.0
2018-05-14 09:20,50.63043,-96.9807583333333,7.1,8.6,278,984.60,9.0,48,8.08,0.0,1011.35,360.0
2018-05-14 09:30,50.63043,-96.9807583333333,7.2,8.7,278,984.68,8.7,49,8.22,0.0,1011.45,360.0
2018-05-14 09:40,50.6304316666667,-96.9807583333333,7.3,8.9,277,984.74,8.6,49,8.44,0.0,1011.51,360.0
2018-05-14 09:50,50.630415,-96.9807766666667,7.0,8.5,275,984.85,8.4,50,8.54,0.0,1011.62,360.0
2018-05-14 10:00,50.6304033333333,-96.980765,7.4,9.0,278,984.86,8.2,51,8.59,0.0,1011.62,207.6
2018-05-14 10:10,50.6304516666667,-96.98076,8.0,9.4,279,984.90,8.0,52,8.56,0.0,1011.74,207.6
2018-05-14 10:20,50.630425,-96.9807466666667,7.7,9.5,274,985.10,7.9,52,8.51,0.0,1012.00,207.6
2018-05-14 10:30,50.63043,-96.9807466666667,7.5,9.4,263,985.34,8.0,53,8.51,0.0,1012.24,207.6
2018-05-14 10:40,50.6304316666667,-96.9807466666667,8.0,11.0,274,985.61,7.8,53,8.54,0.0,1012.56,207.6
2018-05-14 10:50,50.6304416666667,-96.98076,7.3,10.6,281,985.93,7.6,54,8.58,0.0,1012.90,207.6
2018-05-14 11:00,50.6304416666667,-96.9807566666667,7.4,10.4,278,986.13,7.5,56,8.54,0.0,1013.10,38.0
2018-05-14 11:10,50.63044,-96.9807566666667,6.8,9.6,276,986.30,7.2,57,8.53,0.0,1013.31,38.0
2018-05-14 11:20,50.6304416666667,-96.9807583333333,6.6,8.9,273,986.37,7.4,57,8.54,0.0,1013.39,38.0
2018-05-14 11:30,50.6304416666667,-96.980755,6.3,8.5,279,986.45,7.6,56,8.53,0.0,1013.46,38.0
2018-05-14 11:40,50.63044,-96.980755,6.6,8.6,285,986.61,7.7,57,8.50,0.0,1013.63,38.0
2018-05-14 11:50,50.63044,-96.980755,6.3,8.3,296,986.78,8.0,56,8.45,0.0,1013.80,38.0
2018-05-14 12:00,50.6304216666667,-96.9807466666667,7.2,10.9,304,986.89,8.4,54,8.38,0.0,1013.90,119.2
2018-05-14 12:10,50.6304183333333,-96.9807516666667,7.4,10.7,304,986.97,8.9,53,8.37,0.0,1013.97,119.2
2018-05-14 12:20,50.6304233333333,-96.9807566666667,6.2,9.0,308,987.12,9.1,52,8.37,0.0,1014.11,119.2
2018-05-14 12:30,50.6304466666667,-96.980755,7.8,11.2,316,987.21,9.4,51,8.37,0.0,1014.20,119.2
2018-05-14 12:40,50.6304383333333,-96.980755,8.5,11.8,324,987.40,9.3,51,8.36,0.0,1014.40,119.2
2018-05-14 12:50,50.6304383333333,-96.98076,7.1,10.5,334,987.57,9.2,52,8.34,0.0,1014.59,119.2
2018-05-14 13:00,50.63044,-96.98076,8.3,10.5,356,987.69,9.1,54,8.33,0.0,1014.73,4.7
2018-05-14 13:10,50.6304366666667,-96.9807616666667,8.2,11.1,5,987.70,8.7,58,8.30,0.0,1014.76,4.7
2018-05-14 13:20,50.6304266666667,-96.9807666666667,7.1,9.6,6,987.94,8.4,59,8.27,0.0,1015.01,4.7
2018-05-14 13:30,50.6304383333333,-96.9807733333333,5.6,7.4,6,988.07,8.3,60,8.21,0.0,1015.14,4.7
2018-05-14 13:40,50.6304366666667,-96.9807683333333,7.6,8.6,14,988.21,8.0,64,8.19,0.0,1015.28,4.7
2018-05-14 13:50,50.630435,-96.98077,6.9,8.3,18,988.30,8.0,64,8.18,0.0,1015.35,4.7
2018-05-14 14:00,50.6304683333333,-96.9808366666667,8.3,9.6,20,988.39,7.5,70,8.18,0.0,1015.44,300.3
2018-05-14 14:10,50.63044,-96.9807633333333,7.9,9.2,18,988.42,7.8,68,8.16,0.0,1015.45,300.3
2018-05-14 14:20,50.630435,-96.980765,8.2,9.2,24,988.43,7.7,69,8.20,0.0,1015.46,300.3
2018-05-14 14:30,50.6304333333333,-96.9807633333333,8.3,8.9,25,988.46,7.4,71,8.25,0.0,1015.50,300.3
2018-05-14 14:40,50.6304333333333,-96.9807633333333,7.2,8.5,27,988.49,7.3,74,8.23,0.0,1015.54,300.3
2018-05-14 14:50,50.6304333333333,-96.9807633333333,6.9,7.8,37,988.53,7.1,75,8.27,0.0,1015.61,300.3
2018-05-14 15:00,50.6304333333333,-96.980765,5.5,6.8,28,988.60,7.2,75,8.32,0.0,1015.69,310.6
2018-05-14 15:10,50.630435,-96.98077,4.1,4.8,34,988.71,7.4,74,8.33,0.0,1015.81,310.6
2018-05-14 15:20,50.6304366666667,-96.98076,4.9,5.5,52,988.76,7.6,70,8.36,0.0,1015.85,310.6
2018-05-14 15:30,50.6304366666667,-96.9807583333333,4.7,5.3,58,988.81,7.6,69,8.24,0.0,1015.92,310.6
2018-05-14 15:40,50.6304366666667,-96.9807583333333,4.6,6.5,67,988.80,7.9,68,8.11,0.0,1015.89,310.6
2018-05-14 15:50,50.6304283333333,-96.9807533333333,5.1,6.5,75,988.75,8.0,70,8.01,0.0,1015.85,310.6
2018-05-14 16:00,50.6304283333333,-96.9807533333333,3.9,5.2,56,988.68,7.7,71,7.84,0.0,1015.79,360.0
2018-05-14 16:10,50.63043,-96.980755,4.0,7.1,69,988.65,7.9,69,7.86,0.0,1015.75,360.0
2018-05-14 16:20,50.6304316666667,-96.9807583333333,4.3,7.2,85,988.65,8.9,64,8.02,0.0,1015.71,360.0
2018-05-14 16:30,50.630445,-96.980775,4.9,6.7,87,988.65,9.6,61,8.08,0.0,1015.69,360.0
2018-05-14 16:40,50.6304383333333,-96.9807666666667,6.1,9.7,87,988.54,9.6,62,8.05,0.0,1015.58,360.0
2018-05-14 16:50,50.63044,-96.9807666666667,7.8,9.6,81,988.39,9.6,59,8.04,0.0,1015.43,360.0
2018-05-14 17:00,50.630435,-96.9807566666667,4.0,8.3,94,988.28,10.1,57,8.12,0.0,1015.28,124.7
2018-05-14 17:10,50.6304466666667,-96.9807616666667,7.2,9.6,98,988.19,10.4,57,8.15,0.0,1015.16,124.7
2018-05-14 17:20,50.6304433333333,-96.9807566666667,6.0,10.2,77,988.10,10.6,54,8.12,0.0,1015.06,124.7
2018-05-14 17:30,50.63044,-96.98076,6.4,11.0,67,988.03,11.1,50,8.07,0.0,1014.95,124.7
2018-05-14 17:40,50.6304383333333,-96.98076,3.8,8.2,76,988.04,12.5,46,8.10,0.0,1014.89,124.7
2018-05-14 17:50,50.6304366666667,-96.9807583333333,2.6,12.8,350,987.90,13.2,40,8.14,0.0,1014.72,124.7
2018-05-14 18:00,50.6304366666667,-96.9807583333333,4.9,14.7,328,987.72,15.8,32,8.13,0.0,1014.41,48.3
2018-05-14 18:10,50.630435,-96.9807583333333,7.2,17.1,327,987.68,16.6,27,8.12,0.0,1014.28,48.3
2018-05-14 18:20,50.6304366666667,-96.9807583333333,1.5,16.3,22,987.81,14.0,39,8.15,0.0,1014.50,48.3
2018-05-14 18:30,50.6304366666667,-96.9807583333333,15.7,23.3,342,987.39,16.5,25,8.28,0.0,1013.95,48.3
2018-05-14 18:40,50.6304366666667,-96.98076,8.1,14.5,334,987.66,16.9,26,8.28,0.0,1014.21,48.3
2018-05-14 18:50,50.6304366666667,-96.98076,11.0,17.8,304,987.51,17.4,25,8.59,0.0,1014.01,48.3
2018-05-14 19:00,50.6304383333333,-96.980755,12.4,23.0,319,987.44,17.4,25,8.80,0.0,1013.93,360.0
2018-05-14 19:10,50.63044,-96.9807483333333,12.0,21.2,309,987.48,17.7,23,9.12,0.0,1013.95,360.0
2018-05-14 19:20,50.6304433333333,-96.9807433333333,12.2,20.9,304,987.51,17.7,22,9.34,0.0,1013.95,360.0
2018-05-14 19:30,50.630435,-96.980745,12.6,21.2,327,987.55,17.8,22,9.52,0.0,1013.93,360.0
2018-05-14 19:40,50.6304316666667,-96.980745,11.8,19.5,10,987.93,14.1,41,9.80,0.0,1014.45,360.0
2018-05-14 19:50,50.6304333333333,-96.9807516666667,9.0,12.9,18,988.27,11.8,45,9.93,0.0,1014.78,360.0
2018-05-14 20:00,50.6304333333333,-96.9807533333333,9.7,15.3,39,988.29,11.1,50,10.01,0.0,1014.81,131.7
2018-05-14 20:10,50.6304333333333,-96.980755,9.0,15.5,50,988.31,9.5,59,10.02,0.0,1015.03,131.7
2018-05-14 20:20,50.630435,-96.9807566666667,14.4,17.9,57,988.19,9.0,58,10.06,0.0,1014.80,131.7
2018-05-14 20:30,50.630435,-96.9807566666667,15.4,18.0,58,988.13,9.0,58,10.04,0.0,1014.72,131.7
2018-05-14 20:40,50.630435,-96.9807583333333,13.8,16.0,64,988.13,8.3,62,9.62,0.0,1014.73,131.7
2018-05-14 20:50,50.630435,-96.9807566666667,11.5,13.5,62,988.24,8.0,64,9.24,0.0,1014.86,131.7
2018-05-14 21:00,50.630435,-96.9807566666667,11.8,13.0,63,988.26,8.0,63,9.11,0.0,1014.86,0.0
2018-05-14 21:10,50.6304366666667,-96.9807583333333,11.0,12.8,66,988.29,8.2,61,8.88,0.0,1014.88,0.0
2018-05-14 21:20,50.6304366666667,-96.9807583333333,9.5,11.5,64,988.37,8.2,62,8.75,0.0,1014.96,0.0
2018-05-14 21:30,50.6304366666667,-96.9807583333333,12.5,14.2,67,988.35,8.3,60,8.66,0.0,1015.11,0.0
2018-05-14 21:40,50.6304333333333,-96.9807683333333,12.0,14.0,66,988.46,8.7,57,8.58,0.0,1015.32,0.0
2018-05-14 21:50,50.6304333333333,-96.9807616666667,9.3,11.9,68,988.49,8.8,56,8.51,0.0,1015.38,0.0
2018-05-14 22:00,50.630425,-96.980735,7.1,8.5,61,988.58,8.4,59,8.47,0.0,1015.56,138.8
2018-05-14 22:10,50.63043,-96.9807416666667,5.8,8.4,56,988.61,8.3,60,8.42,0.0,1015.62,138.8
2018-05-14 22:20,50.6304316666667,-96.9807483333333,5.1,7.6,56,988.64,8.5,60,8.33,0.0,1015.65,138.8
2018-05-14 22:30,50.6304316666667,-96.9807583333333,3.5,4.6,48,988.78,8.5,60,8.32,0.0,1015.84,138.8
2018-05-14 22:40,50.6304333333333,-96.98076,3.6,5.2,38,988.82,8.6,59,8.38,0.0,1015.88,138.8
2018-05-14 22:50,50.6304366666667,-96.98076,3.3,5.0,56,988.90,9.0,57,8.37,0.0,1015.94,138.8
2018-05-14 23:00,50.6304383333333,-96.98076,3.4,8.2,21,988.97,10.0,49,8.37,0.0,1015.95,345.5
2018-05-14 23:10,50.6304366666667,-96.9807616666667,8.2,10.4,28,988.92,9.6,54,8.42,0.0,1015.92,345.5
2018-05-14 23:20,50.6304366666667,-96.9807883333333,9.2,12.1,26,988.91,9.6,55,8.59,0.0,1015.91,345.5
2018-05-14 23:30,50.630425,-96.9807566666667,6.9,8.1,25,989.02,9.2,58,8.88,0.0,1016.02,345.5
2018-05-14 23:40,50.63043,-96.9807566666667,4.0,6.6,19,989.25,9.3,54,8.86,0.0,1016.24,345.5
